Flag for Spain Weather past 2 weeks in Córdoba, Spain

Now
75 °F

Clear.


Feels Like: 78 °F
Forecast: 64 / 101 °F
Wind: 10 mph from South

Location: Moron De La Frontera Airport

Current Time: Jul 24, 2014 at 1:47:52 AM

Latest Report: Jul 24, 2014 at 1:00 AM


Visibility: 10 mi

Pressure: 29.86 "Hg

Humidity: 44%

Dew point: 52 °F

Location of CórdobaLocation

Historic Weather in Córdoba — Graph

°F

Córdoba temperature yesterday

Maximum temperature yesterday: 95 °F (at 4:00 PM)
Minimum temperature yesterday: 70 °F (at 7:00 AM)
Average temperature yesterday: 83 °F

Past Weeks' High & Low Weather Summary

 TemperatureHumidityPressure
High106 °F (Jul 16, 5:00 PM)94% (Jul 13, 5:00 AM)30.12 "Hg (Jul 13, 5:00 AM)
Low61 °F (Jul 21, 6:00 AM)15% (Jul 14, 4:00 PM)29.83 "Hg (Jul 23, 5:00 PM)
Average81 °F50%29.98 "Hg
* Reported Midnight between Jul 8 and Jul 9 — Midnight between Jul 23 and Jul 24, Córdoba, Weather by CustomWeather, © 2014

Note: Actual official high and low records may vary slightly from our data, if they occured in-between our weather recording intervals... More about our weather records

Advertising

Córdoba weather history for previous 24 hours

 ConditionsComfort  
Time TempWeatherWind HumidityBarometerVisibility
12:00 AM
Jul 24
75 °FClear.8 mph44%29.89 "Hg10 mi
11:00 PM
Jul 23
77 °FClear.9 mph44%29.89 "Hg10 mi
10:00 PM81 °FSunny.10 mph34%29.86 "Hg10 mi
9:00 PM86 °FSunny.12 mph31%29.86 "Hg10 mi
8:00 PM91 °FSunny.13 mph32%29.83 "Hg10 mi
7:00 PM93 °FSunny.13 mph24%29.83 "Hg10 mi
6:00 PM95 °FSunny.13 mph28%29.83 "Hg10 mi
5:00 PM95 °FSunny.12 mph34%29.83 "Hg10 mi
4:00 PM95 °FPassing clouds.9 mph34%29.86 "HgN/A
3:00 PM93 °FPassing clouds.7 mph32%29.86 "HgN/A
2:00 PM93 °FPassing clouds.8 mph32%29.89 "HgN/A
1:00 PM90 °FPassing clouds.8 mph31%29.89 "HgN/A
12:00 PM86 °FPassing clouds.6 mph33%29.92 "HgN/A
11:00 AM84 °FPassing clouds.8 mph31%29.92 "HgN/A
8:00 AM70 °FClear.3 mph53%29.89 "Hg10 mi
7:00 AM70 °FClear.No wind53%29.89 "Hg10 mi
6:00 AM72 °FClear.5 mph50%29.89 "Hg10 mi
5:00 AM73 °FPassing clouds.3 mph47%29.89 "HgN/A
4:00 AM73 °FClear.7 mph47%29.89 "Hg10 mi
3:00 AM73 °FClear.8 mph50%29.92 "Hg10 mi
2:00 AM75 °FClear.10 mph50%29.92 "Hg10 mi
Weather by CustomWeather, © 2014

See weather overviewHow to use our weather pages